Time,TemperatureF,DewpointF,PressureIn,WindDirection,WindDirectionDegrees,WindSpeedMPH,WindSpeedGustMPH,Humidity,HourlyPrecipIn,Conditions,Clouds,dailyrainin,SolarRadiationWatts/m^2,SoftwareType,DateUTC
2013-07-19 00:00:00,56.7,50.6,29.88,SW,215,2.0,2.0,80,0.00,,,0.02,0,Wunderground v.1.15,2013-07-19 06:00:00,
2013-07-19 00:10:00,56.4,50.3,29.88,WSW,258,1.0,1.0,80,0.00,,,0.00,0,Wunderground v.1.15,2013-07-19 06:10:00,
2013-07-19 00:20:00,56.1,50.3,29.87,WSW,258,0.0,0.0,81,0.00,,,0.00,0,Wunderground v.1.15,2013-07-19 06:20:00,
2013-07-19 00:30:00,55.1,50.0,29.87,West,259,0.0,0.0,83,0.00,,,0.00,0,Wunderground v.1.15,2013-07-19 06:30:00,
2013-07-19 00:40:00,54.4,49.7,29.87,West,265,1.0,1.0,84,0.00,,,0.00,0,Wunderground v.1.15,2013-07-19 06:40:00,
2013-07-19 00:50:00,54.1,49.1,29.86,West,265,0.0,0.0,83,0.00,,,0.00,0,Wunderground v.1.15,2013-07-19 06:50:00,
2013-07-19 01:10:00,54.4,49.0,29.87,WNW,288,0.0,0.0,82,0.00,,,0.00,0,Wunderground v.1.15,2013-07-19 07:10:00,
2013-07-19 01:20:00,53.8,49.1,29.87,WNW,288,0.0,0.0,84,0.00,,,0.00,0,Wunderground v.1.15,2013-07-19 07:20:00,
2013-07-19 01:30:00,52.9,48.5,29.88,WNW,288,0.0,0.0,85,0.00,,,0.00,0,Wunderground v.1.15,2013-07-19 07:30:00,
2013-07-19 01:40:00,52.4,48.0,29.88,WNW,288,0.0,0.0,85,0.00,,,0.00,0,Wunderground v.1.15,2013-07-19 07:40:00,
2013-07-19 01:50:00,52.3,48.2,29.88,WNW,288,0.0,0.0,86,0.00,,,0.00,0,Wunderground v.1.15,2013-07-19 07:50:00,
2013-07-19 02:00:00,51.7,47.3,29.87,WNW,288,0.0,0.0,85,0.00,,,0.00,0,Wunderground v.1.15,2013-07-19 08:00:00,
2013-07-19 02:10:00,51.3,47.3,29.88,WNW,288,0.0,0.0,86,0.00,,,0.00,0,Wunderground v.1.15,2013-07-19 08:10:00,
2013-07-19 02:20:00,50.6,47.2,29.88,WNW,290,2.0,4.0,88,0.00,,,0.00,0,Wunderground v.1.15,2013-07-19 08:20:00,
2013-07-19 02:30:00,51.2,48.1,29.87,NW,306,3.0,3.0,89,0.00,,,0.00,0,Wunderground v.1.15,2013-07-19 08:30:00,
2013-07-19 02:40:00,50.9,47.2,29.86,West,281,0.0,0.0,87,0.00,,,0.00,0,Wunderground v.1.15,2013-07-19 08:40:00,
2013-07-19 02:50:00,50.4,47.0,29.86,West,281,0.0,0.0,88,0.00,,,0.00,0,Wunderground v.1.15,2013-07-19 08:50:00,
2013-07-19 03:01:00,50.5,47.1,29.86,West,281,0.0,0.0,88,0.00,,,0.00,0,Wunderground v.1.15,2013-07-19 09:01:00,
2013-07-19 03:10:00,50.5,47.1,29.85,West,281,0.0,0.0,88,0.00,,,0.00,0,Wunderground v.1.15,2013-07-19 09:10:00,
2013-07-19 03:20:00,49.9,46.5,29.86,West,281,0.0,0.0,88,0.00,,,0.00,0,Wunderground v.1.15,2013-07-19 09:20:00,
2013-07-19 03:40:00,49.4,46.3,29.86,West,281,1.0,1.0,89,0.00,,,0.00,0,Wunderground v.1.15,2013-07-19 09:40:00,
2013-07-19 03:50:00,49.1,46.0,29.86,West,281,0.0,0.0,89,0.00,,,0.00,0,Wunderground v.1.15,2013-07-19 09:50:00,
2013-07-19 04:00:00,48.7,45.9,29.87,West,281,0.0,0.0,90,0.00,,,0.00,0,Wunderground v.1.15,2013-07-19 10:00:00,
2013-07-19 04:20:00,48.5,45.7,29.87,West,281,0.0,0.0,90,0.00,,,0.00,0,Wunderground v.1.15,2013-07-19 10:20:00,
2013-07-19 04:30:00,47.8,44.7,29.87,WNW,301,0.0,0.0,89,0.00,,,0.00,0,Wunderground v.1.15,2013-07-19 10:30:00,
2013-07-19 05:00:00,47.2,44.1,29.87,WNW,301,0.0,0.0,89,0.00,,,0.00,0,Wunderground v.1.15,2013-07-19 11:00:00,
2013-07-19 05:10:00,46.7,43.9,29.88,WNW,301,1.0,2.0,90,0.00,,,0.00,0,Wunderground v.1.15,2013-07-19 11:10:00,
2013-07-19 05:30:00,47.0,44.2,29.88,WNW,301,3.0,3.0,90,0.00,,,0.00,0,Wunderground v.1.15,2013-07-19 11:30:00,
2013-07-19 05:40:00,47.3,44.5,29.88,WNW,296,3.0,3.0,90,0.00,,,0.00,0,Wunderground v.1.15,2013-07-19 11:40:00,
2013-07-19 06:10:00,47.0,43.6,29.89,WNW,296,1.0,1.0,88,0.00,,,0.00,16,Wunderground v.1.15,2013-07-19 12:10:00,
2013-07-19 06:20:00,47.0,44.2,29.89,WNW,291,0.0,0.0,90,0.00,,,0.00,19,Wunderground v.1.15,2013-07-19 12:20:00,
2013-07-19 06:50:00,50.3,47.8,29.90,WNW,288,0.0,0.0,91,0.00,,,0.00,33,Wunderground v.1.15,2013-07-19 12:50:00,
2013-07-19 07:00:00,51.2,48.1,29.89,WNW,285,0.0,0.0,89,0.00,,,0.00,44,Wunderground v.1.15,2013-07-19 13:00:00,
2013-07-19 07:20:00,53.7,50.2,29.90,South,189,0.0,0.0,88,0.00,,,0.00,167,Wunderground v.1.15,2013-07-19 13:20:00,
2013-07-19 07:30:00,55.4,51.0,29.90,South,184,0.0,0.0,85,0.00,,,0.00,192,Wunderground v.1.15,2013-07-19 13:30:00,
2013-07-19 07:41:00,57.8,52.0,29.89,SSE,167,0.0,0.0,81,0.00,,,0.00,301,Wunderground v.1.15,2013-07-19 13:41:00,
2013-07-19 08:00:00,59.6,51.7,29.89,SE,140,1.0,1.0,75,0.00,,,0.00,367,Wunderground v.1.15,2013-07-19 14:00:00,
2013-07-19 08:10:00,60.5,51.4,29.89,SE,132,0.0,0.0,72,0.00,,,0.00,403,Wunderground v.1.15,2013-07-19 14:10:00,
2013-07-19 08:30:00,62.2,52.7,29.89,SE,132,0.0,0.0,71,0.00,,,0.00,411,Wunderground v.1.15,2013-07-19 14:30:00,
2013-07-19 08:40:00,63.5,53.1,29.89,SE,134,0.0,0.0,69,0.00,,,0.00,503,Wunderground v.1.15,2013-07-19 14:40:00,
2013-07-19 09:10:00,66.5,53.5,29.89,SE,139,0.0,0.0,63,0.00,,,0.00,598,Wunderground v.1.15,2013-07-19 15:10:00,
2013-07-19 09:20:00,68.0,54.0,29.89,SE,139,0.0,0.0,61,0.00,,,0.00,629,Wunderground v.1.15,2013-07-19 15:20:00,
2013-07-19 09:40:00,69.1,51.8,29.89,SE,126,2.0,5.0,54,0.00,,,0.00,686,Wunderground v.1.15,2013-07-19 15:40:00,
2013-07-19 09:50:00,69.5,51.6,29.89,NE,40,2.0,2.0,53,0.00,,,0.00,712,Wunderground v.1.15,2013-07-19 15:50:00,
2013-07-19 10:00:00,70.4,50.3,29.89,ESE,109,2.0,2.0,49,0.00,,,0.00,742,Wunderground v.1.15,2013-07-19 16:00:00,
2013-07-19 10:20:00,71.7,49.8,29.89,East,100,4.0,4.0,46,0.00,,,0.00,786,Wunderground v.1.15,2013-07-19 16:20:00,
2013-07-19 10:30:00,72.6,50.0,29.89,SE,138,7.0,9.0,45,0.00,,,0.00,812,Wunderground v.1.15,2013-07-19 16:30:00,
2013-07-19 10:40:00,72.1,49.0,29.89,SSE,147,8.0,8.0,44,0.00,,,0.00,837,Wunderground v.1.15,2013-07-19 16:40:00,
2013-07-19 11:00:00,72.6,50.0,29.89,East,82,10.0,14.0,45,0.00,,,0.00,875,Wunderground v.1.15,2013-07-19 17:00:00,
2013-07-19 11:10:00,73.4,50.2,29.89,ENE,58,8.0,8.0,44,0.00,,,0.00,900,Wunderground v.1.15,2013-07-19 17:10:00,
2013-07-19 11:40:00,74.5,49.2,29.88,ENE,74,12.0,12.0,41,0.00,,,0.00,953,Wunderground v.1.15,2013-07-19 17:40:00,
2013-07-19 11:50:00,73.5,48.4,29.88,SE,142,11.0,11.0,41,0.00,,,0.00,958,Wunderground v.1.15,2013-07-19 17:50:00,
2013-07-19 12:01:00,73.7,50.4,29.88,ESE,116,11.0,14.0,44,0.00,,,0.00,976,Wunderground v.1.15,2013-07-19 18:01:00,
2013-07-19 12:20:00,73.0,50.4,29.87,East,89,10.0,15.0,45,0.00,,,0.00,990,Wunderground v.1.15,2013-07-19 18:20:00,
2013-07-19 12:30:00,74.9,50.3,29.86,ENE,74,9.0,12.0,42,0.00,,,0.00,1021,Wunderground v.1.15,2013-07-19 18:30:00,
2013-07-19 13:00:00,74.1,49.5,29.86,NE,43,8.0,8.0,42,0.00,,,0.00,350,Wunderground v.1.15,2013-07-19 19:00:00,
2013-07-19 13:10:00,74.5,51.8,29.85,ESE,115,2.0,14.0,45,0.00,,,0.00,1220,Wunderground v.1.15,2013-07-19 19:10:00,
2013-07-19 13:40:00,73.8,49.3,29.85,ESE,105,9.0,13.0,42,0.00,,,0.00,265,Wunderground v.1.15,2013-07-19 19:40:00,
2013-07-19 13:50:00,71.5,51.3,29.85,SE,135,7.0,7.0,49,0.00,,,0.00,204,Wunderground v.1.15,2013-07-19 19:50:00,
2013-07-19 14:10:00,69.2,51.3,29.85,WSW,258,1.0,14.0,53,0.00,,,0.00,137,Wunderground v.1.15,2013-07-19 20:10:00,
2013-07-19 14:20:00,65.3,47.7,29.84,WSW,246,13.0,13.0,53,0.00,,,0.00,181,Wunderground v.1.15,2013-07-19 20:20:00,
2013-07-19 14:30:00,65.5,51.2,29.83,SW,227,7.0,7.0,60,0.00,,,0.00,278,Wunderground v.1.15,2013-07-19 20:30:00,
2013-07-19 14:50:00,71.9,52.2,29.82,South,182,1.0,3.0,50,0.00,,,0.00,1005,Wunderground v.1.15,2013-07-19 20:50:00,
2013-07-19 15:00:00,73.5,50.9,29.82,South,188,3.0,3.0,45,0.00,,,0.00,907,Wunderground v.1.15,2013-07-19 21:00:00,
2013-07-19 15:10:00,74.1,49.5,29.81,SSE,162,1.0,1.0,42,0.00,,,0.00,882,Wunderground v.1.15,2013-07-19 21:10:00,
2013-07-19 15:40:00,76.5,50.4,29.79,WSW,241,2.0,3.0,40,0.00,,,0.00,846,Wunderground v.1.15,2013-07-19 21:40:00,
2013-07-19 15:50:00,76.1,50.0,29.78,SE,137,1.0,6.0,40,0.00,,,0.00,819,Wunderground v.1.15,2013-07-19 21:50:00,
2013-07-19 16:10:00,74.5,48.6,29.77,SSE,149,4.0,4.0,40,0.00,,,0.00,687,Wunderground v.1.15,2013-07-19 22:10:00,
2013-07-19 16:20:00,75.2,49.9,29.77,South,176,0.0,0.0,41,0.00,,,0.00,134,Wunderground v.1.15,2013-07-19 22:20:00,
2013-07-19 16:50:00,66.7,58.5,29.76,WNW,294,0.0,0.0,75,0.00,,,0.00,172,Wunderground v.1.15,2013-07-19 22:50:00,
2013-07-19 17:00:00,65.9,58.1,29.76,WNW,295,0.0,0.0,76,0.00,,,0.00,107,Wunderground v.1.15,2013-07-19 23:00:00,
2013-07-19 17:30:00,66.4,60.0,29.76,South,181,0.0,0.0,80,0.00,,,0.00,499,Wunderground v.1.15,2013-07-19 23:30:00,
2013-07-19 17:40:00,68.9,55.3,29.75,SSE,152,1.0,5.0,62,0.00,,,0.00,230,Wunderground v.1.15,2013-07-19 23:40:00,
2013-07-19 18:00:00,69.0,55.0,29.76,SE,127,2.0,2.0,61,0.00,,,0.00,141,Wunderground v.1.15,2013-07-20 00:00:00,
2013-07-19 18:10:00,68.1,51.8,29.77,East,98,4.0,15.0,56,0.00,,,0.00,121,Wunderground v.1.15,2013-07-20 00:10:00,
2013-07-19 18:40:00,65.9,52.9,29.81,NE,49,12.0,12.0,63,0.00,,,0.00,26,Wunderground v.1.15,2013-07-20 00:40:00,
2013-07-19 18:50:00,64.1,54.1,29.82,ENE,73,9.0,13.0,70,0.00,,,0.00,21,Wunderground v.1.15,2013-07-20 00:50:00,
2013-07-19 19:10:00,62.2,55.6,29.82,WNW,297,3.0,3.0,79,0.08,,,0.02,118,Wunderground v.1.15,2013-07-20 01:10:00,
2013-07-19 19:20:00,61.5,53.9,29.81,ENE,78,2.0,2.0,76,0.04,,,0.02,58,Wunderground v.1.15,2013-07-20 01:20:00,
2013-07-19 19:30:00,60.9,54.3,29.81,South,184,1.0,1.0,79,0.00,,,0.02,35,Wunderground v.1.15,2013-07-20 01:30:00,
2013-07-19 19:50:00,57.7,53.5,29.80,North,360,2.0,2.0,86,0.00,,,0.02,19,Wunderground v.1.15,2013-07-20 01:50:00,
2013-07-19 20:00:00,57.0,53.2,29.79,WNW,291,0.0,0.0,87,0.00,,,0.02,16,Wunderground v.1.15,2013-07-20 02:00:00,
2013-07-19 20:20:00,55.9,52.7,29.79,WNW,291,0.0,0.0,89,0.00,,,0.02,7,Wunderground v.1.15,2013-07-20 02:20:00,
2013-07-19 20:30:00,55.5,52.3,29.79,WNW,291,0.0,0.0,89,0.00,,,0.02,0,Wunderground v.1.15,2013-07-20 02:30:00,
2013-07-19 20:40:00,55.2,52.3,29.80,WNW,282,0.0,0.0,90,0.00,,,0.02,0,Wunderground v.1.15,2013-07-20 02:40:00,
2013-07-19 21:00:00,54.6,51.7,29.80,WNW,282,0.0,0.0,90,0.00,,,0.02,0,Wunderground v.1.15,2013-07-20 03:00:00,
2013-07-19 21:10:00,54.3,49.2,29.80,South,188,2.0,2.0,83,0.00,,,0.02,0,Wunderground v.1.15,2013-07-20 03:10:00,
2013-07-19 21:40:00,53.2,49.4,29.82,WSW,252,0.0,0.0,87,0.00,,,0.02,0,Wunderground v.1.15,2013-07-20 03:40:00,
2013-07-19 21:50:00,52.5,48.1,29.82,WSW,253,0.0,0.0,85,0.00,,,0.02,0,Wunderground v.1.15,2013-07-20 03:50:00,
2013-07-19 22:20:00,50.6,47.2,29.82,WSW,254,0.0,0.0,88,0.00,,,0.02,0,Wunderground v.1.15,2013-07-20 04:20:00,
2013-07-19 22:30:00,50.5,46.8,29.82,WSW,254,0.0,0.0,87,0.00,,,0.02,0,Wunderground v.1.15,2013-07-20 04:30:00,
2013-07-19 22:50:00,50.3,46.9,29.82,WSW,255,0.0,0.0,88,0.00,,,0.02,0,Wunderground v.1.15,2013-07-20 04:50:00,
2013-07-19 23:00:00,50.2,46.2,29.82,WSW,256,1.0,3.0,86,0.00,,,0.02,0,Wunderground v.1.15,2013-07-20 05:00:00,
2013-07-19 23:10:00,50.0,46.3,29.82,WSW,256,3.0,3.0,87,0.00,,,0.02,0,Wunderground v.1.15,2013-07-20 05:10:00,
2013-07-19 23:30:00,49.6,45.9,29.81,West,259,0.0,0.0,87,0.00,,,0.02,0,Wunderground v.1.15,2013-07-20 05:30:00,
2013-07-19 23:40:00,49.2,45.5,29.81,West,259,0.0,0.0,87,0.00,,,0.02,0,Wunderground v.1.15,2013-07-20 05:40:00,